Home   Weather   Garmisch-Partenkirchen   Past weeks

Flag for Germany Past Weather in Garmisch-Partenkirchen, Bavaria, Germany — Yesterday and Last 2 Weeks

Now
52 °F

Scattered clouds.


Feels Like: 48 °F
Forecast: 37 / 45 °F
Wind: 12 mph from West

Location: Innsbruck-Flughafen

Current Time: Apr 25, 2017 at 10:54:40 am

Latest Report: Apr 25, 2017 at 9:50 am


Visibility: N/A

Pressure: 29.77 "Hg (27.37 "Hg at 699m altitude)

Humidity: 62%

Dew Point: 39 °F

Location of Garmisch-PartenkirchenLocation

Past Weather in Garmisch-Partenkirchen — Graph

°F

Garmisch-Partenkirchen Temperature Yesterday

Maximum temperature yesterday: 66 °F (at 2:20 pm)
Minimum temperature yesterday: 32 °F (at 4:50 am)
Average temperature yesterday: 50 °F

High & Low Weather Summary for the Past Weeks

 TemperatureHumidityPressure
High73 °F (Apr 10, 1:50 pm)100% (Apr 19, 3:50 am)30.54 "Hg (Apr 19, 3:50 am)
Low25 °F (Apr 21, 4:50 am)27% (Apr 22, 3:50 pm)29.80 "Hg (Apr 25, 6:50 am)
Average47 °F68%30.12 "Hg
* Reported Apr 10 9:20 am — Apr 25 9:20 am, Garmisch-Partenkirchen, Weather by CustomWeather, © 2017

Note: Actual official high and low records may vary slightly from our data, if they occured in-between our weather recording intervals... More about our weather records

Advertising

Garmisch-Partenkirchen Weather History for the Previous 24 Hours

Scroll right to see more
 ConditionsComfort  
Time TempWeatherWind HumidityBarometerVisibility
9:20 am
Tue, Apr 25
52 °FBroken clouds.9 mph62%29.80 "HgN/A
8:50 am48 °FScattered clouds.10 mph71%29.80 "HgN/A
8:20 am45 °FScattered clouds.13 mph76%29.80 "HgN/A
7:50 am45 °FBroken clouds.9 mph76%29.80 "HgN/A
7:20 am43 °FPartly sunny.12 mph76%29.80 "HgN/A
6:50 am41 °FScattered clouds.9 mph81%29.80 "HgN/A
6:20 am39 °FScattered clouds.6 mph87%29.83 "HgN/A
5:50 am41 °FPassing clouds.8 mph81%29.83 "HgN/A
5:20 am41 °FQuite cool.8 mph81%29.83 "HgN/A
4:20 am41 °FPassing clouds.6 mph81%29.86 "HgN/A
3:50 am43 °FPassing clouds.9 mph76%29.86 "HgN/A
3:20 am43 °FPassing clouds.6 mph76%29.86 "HgN/A
2:50 am43 °FPassing clouds.5 mph81%29.86 "HgN/A
2:20 am45 °FQuite cool.9 mph76%29.86 "HgN/A
1:50 am46 °FCool.6 mph71%29.86 "HgN/A
1:20 am46 °FCool.5 mph71%29.89 "HgN/A
12:50 am48 °FCool.3 mph62%29.89 "HgN/A
12:20 am48 °FCool.6 mph66%29.89 "HgN/A
11:50 pm
Mon, Apr 24
50 °FCool.6 mph62%29.89 "HgN/A
11:20 pm55 °FRefreshingly cool.9 mph55%29.89 "HgN/A
10:50 pm57 °FClear.6 mph48%29.89 "Hg10 mi
10:20 pm57 °FClear.9 mph48%29.89 "Hg10 mi
9:50 pm57 °FPassing clouds.15 mph48%29.89 "HgN/A
9:20 pm59 °FPassing clouds.13 mph45%29.89 "HgN/A
8:50 pm59 °FPassing clouds.12 mph45%29.89 "HgN/A
8:20 pm59 °FPassing clouds.20 mph45%29.89 "HgN/A
7:50 pm61 °FScattered clouds.17 mph42%29.89 "HgN/A
7:20 pm61 °FScattered clouds.17 mph39%29.89 "HgN/A
6:50 pm63 °FPassing clouds.18 mph37%29.86 "HgN/A
6:20 pm63 °FPassing clouds.17 mph37%29.86 "HgN/A
5:50 pm64 °FScattered clouds.17 mph37%29.86 "HgN/A
5:20 pm64 °FScattered clouds.15 mph37%29.86 "HgN/A
4:50 pm66 °FScattered clouds.17 mph32%29.86 "HgN/A
4:20 pm64 °FScattered clouds.15 mph34%29.89 "HgN/A
3:50 pm66 °FScattered clouds.13 mph32%29.89 "HgN/A
3:20 pm66 °FPassing clouds.14 mph32%29.89 "HgN/A
2:50 pm66 °FPassing clouds.13 mph32%29.92 "HgN/A
2:20 pm66 °FPassing clouds.3 mph35%29.92 "HgN/A
1:50 pm64 °FPassing clouds.5 mph37%29.92 "HgN/A
1:20 pm61 °FPassing clouds.6 mph42%29.95 "HgN/A
12:50 pm59 °FPassing clouds.5 mph45%29.98 "HgN/A
12:20 pm55 °FPassing clouds.2 mph51%29.98 "HgN/A
11:50 am54 °FPassing clouds.1 mph51%30.01 "HgN/A
11:20 am52 °FPassing clouds.2 mph54%30.04 "HgN/A
10:50 am48 °FSunny.2 mph62%30.04 "Hg10 mi
10:20 am46 °FPassing clouds.5 mph66%30.07 "HgN/A
Weather by CustomWeather, © 2017

See weather overviewHow to use our weather pages